Weather History for Sedalia, MO

Change the Weather History Date:

Saturday, March 23, 2013

  Actual Average Record
Temperature  
Mean Temperature 40 °F 49 °F  
Max Temperature 46 °F 60 °F 86 °F (1939)
Min Temperature 33 °F 38 °F 15 °F (1960)
Degree Days  
Heating Degree Days 25 16  
Month to date heating degree days 620 466  
Since 1 July heating degree days 4058 4083  
Cooling Degree Days 0 0  
Month to date cooling degree days 0 0  
Year to date cooling degree days 1 0  
Moisture  
Dew Point 32 °F    
Average Humidity 75    
Maximum Humidity 96    
Minimum Humidity 53    
Precipitation  
Precipitation 0.38 in 0.09 in 1.65 in (1946)
Month to date precipitation 1.90 1.89  
Year to date precipitation 7.17 5.49  
Sea Level Pressure  
Sea Level Pressure 29.95 in    
Wind  
Wind Speed 10 mph (NE)    
Max Wind Speed 18 mph    
Max Gust Speed 25 mph    
Visibility 7 miles    
Events Rain , Snow    
T = Trace of Precipitation, MM = Missing Value Source: NWS Daily Summary

Daily Weather History Graph

Daily Weather History Graph

Search for Another Location

Airport:

Trip Planner

Search our weather history database for the weather conditions in past years. The results will help you decide how hot, cold, wet, or windy it might be!

Date:

Astronomy

Mar. 23, 2013 Rise Set
Actual Time 7:11 AM CDT 7:27 PM CDT
Civil Twilight 6:44 AM CDT 7:54 PM CDT
Nautical Twilight 6:13 AM CDT 8:25 PM CDT
Astronomical Twilight 5:41 AM CDT 8:57 PM CDT
Moon 3:57 PM CDT (3/23) 4:45 AM CDT (3/23)
Length of Visible Light 13h 09m
Length of Day
12h 16m
Waxing Gibbous, 85% of the Moon is Illuminated
Mar 23
Waxing Gibbous
Mar 27
Full
Apr 2
Last Quarter
Apr 10
New
Apr 18
First Quarter

Hourly Weather History & Observations

Time (CDT) Temp. Windchill Dew Point Humidity Pressure Visibility Wind Dir Wind Speed Gust Speed Precip Events Conditions
12:14 AM 35.6 °F - 33.8 °F 93% 30.01 in 5.0 mi Calm Calm - N/A   Overcast
12:35 AM 35.6 °F 32.8 °F 33.8 °F 93% 30.01 in 5.0 mi North 3.5 mph - N/A   Overcast
12:53 AM 36.0 °F - 33.1 °F 89% 30.03 in 5.0 mi Calm Calm - N/A   Overcast
1:39 AM 35.6 °F 32.8 °F 30.2 °F 81% 30.01 in 9.0 mi ENE 3.5 mph - N/A   Overcast
1:53 AM 36.0 °F 33.3 °F 30.9 °F 82% 30.03 in 9.0 mi NE 3.5 mph - N/A   Overcast
2:53 AM 36.0 °F - 30.0 °F 79% 30.02 in 8.0 mi Calm Calm - N/A   Overcast
3:53 AM 35.1 °F 28.6 °F 28.0 °F 76% 30.00 in 10.0 mi NE 8.1 mph - N/A   Overcast
4:53 AM 35.1 °F 29.3 °F 28.0 °F 76% 30.00 in 10.0 mi NE 6.9 mph - N/A   Overcast
5:53 AM 35.1 °F 31.0 °F 28.0 °F 76% 30.01 in 10.0 mi NNE 4.6 mph - N/A   Overcast
6:53 AM 35.1 °F 29.3 °F 28.0 °F 76% 30.03 in 10.0 mi NE 6.9 mph - N/A   Overcast
7:53 AM 35.1 °F 29.3 °F 28.0 °F 76% 30.03 in 9.0 mi NE 6.9 mph - N/A   Overcast
8:53 AM 36.0 °F 30.3 °F 28.0 °F 73% 30.04 in 10.0 mi NE 6.9 mph - N/A   Overcast
9:53 AM 37.9 °F 31.5 °F 28.0 °F 68% 30.02 in 10.0 mi ENE 9.2 mph - N/A   Overcast
10:53 AM 39.0 °F 31.4 °F 28.0 °F 65% 30.03 in 10.0 mi East 12.7 mph - N/A   Overcast
11:53 AM 39.9 °F 33.4 °F 27.0 °F 60% 30.04 in 10.0 mi ENE 10.4 mph - N/A   Overcast
12:53 PM 41.0 °F 34.7 °F 28.0 °F 60% 30.01 in 10.0 mi NE 10.4 mph - N/A   Overcast
1:53 PM 42.1 °F 35.7 °F 28.9 °F 60% 29.98 in 10.0 mi ENE 11.5 mph - N/A   Overcast
2:53 PM 44.1 °F 38.1 °F 28.9 °F 55% 29.92 in 10.0 mi ENE 11.5 mph - N/A   Overcast
3:01 PM 44.6 °F 37.8 °F 26.6 °F 49% 29.90 in 10.0 mi ENE 15.0 mph - N/A   Overcast
3:53 PM 45.0 °F 38.5 °F 28.0 °F 52% 29.89 in 10.0 mi ENE 13.8 mph - N/A   Overcast
4:14 PM 42.8 °F 36.6 °F 32.0 °F 66% 29.87 in 5.0 mi ENE 11.5 mph 25.3 mph 0.01 in Rain Light Rain
4:53 PM 42.1 °F 35.7 °F 34.0 °F 73% 29.89 in 6.0 mi NE 11.5 mph - 0.03 in Rain Light Rain
5:53 PM 39.9 °F 33.4 °F 36.0 °F 86% 29.91 in 6.0 mi NNE 10.4 mph - 0.04 in Rain Light Rain
6:02 PM 39.2 °F 31.6 °F 35.6 °F 87% 29.89 in 6.0 mi NNE 12.7 mph - 0.00 in Rain Light Rain
6:21 PM 39.2 °F 31.2 °F 35.6 °F 87% 29.87 in 4.0 mi NE 13.8 mph - 0.02 in Rain Light Rain
6:51 PM 39.2 °F 31.6 °F 35.6 °F 87% 29.87 in 6.0 mi NNE 12.7 mph - 0.03 in Rain Light Rain
6:53 PM 39.0 °F 31.0 °F 36.0 °F 89% 29.89 in 6.0 mi NNE 13.8 mph - 0.03 in Rain Light Rain
7:14 PM 39.2 °F 31.2 °F 35.6 °F 87% 29.88 in 4.0 mi NNE 13.8 mph - 0.02 in Rain Light Rain
7:53 PM 39.0 °F 31.0 °F 36.0 °F 89% 29.88 in 7.0 mi NNE 13.8 mph - 0.04 in Rain Light Rain
7:59 PM 39.2 °F 31.2 °F 35.6 °F 87% 29.87 in 6.0 mi NNE 13.8 mph - 0.00 in Rain Light Rain
8:13 PM 39.2 °F 30.5 °F 35.6 °F 87% 29.87 in 7.0 mi NNE 16.1 mph - 0.00 in Rain Light Rain
8:53 PM 37.9 °F 28.9 °F 36.0 °F 93% 29.89 in 6.0 mi NNE 16.1 mph - 0.00 in Rain Light Rain
9:53 PM 37.0 °F 27.7 °F 35.1 °F 93% 29.91 in 5.0 mi NNE 16.1 mph 21.9 mph 0.04 in Rain Light Rain
10:51 PM 35.6 °F 27.5 °F 33.8 °F 93% 29.91 in 2.5 mi North 11.5 mph - 0.10 in Snow Light Snow
10:53 PM 35.1 °F 27.9 °F 33.1 °F 92% 29.94 in 2.5 mi North 9.2 mph - 0.11 in Snow Light Snow
11:00 PM 33.8 °F 24.8 °F 32.0 °F 93% 29.90 in 1.2 mi NNE 12.7 mph - 0.01 in Snow Light Snow
11:06 PM 33.8 °F 24.8 °F 32.0 °F 93% 29.89 in 0.8 mi NNE 12.7 mph - 0.02 in Snow Light Snow
11:12 PM 33.8 °F 24.8 °F 32.0 °F 93% 29.88 in 1.0 mi NE 12.7 mph - 0.03 in Snow Light Snow
11:48 PM 33.8 °F 25.3 °F 32.0 °F 93% 29.89 in 1.2 mi North 11.5 mph - 0.06 in Snow Light Snow
11:53 PM 33.1 °F 25.5 °F 32.0 °F 96% 29.90 in 1.2 mi NNE 9.2 mph - 0.06 in Snow Light Snow